owner,sensor,date,latitude,longitude,vertical_datum,wind_speed,wind_to_direction,wind_speed_of_gust,qcFlag 
COMPS,ioos:station:USF.COMPS:C10:1,2018-01-01T00:05:00Z,27.1690,-82.9260,3.0,4.93,190.1,6.17,'1111122,1111122,1111122' 
COMPS,ioos:station:USF.COMPS:C10:1,2018-01-01T00:35:00Z,27.1690,-82.9260,3.0,4.83,191.87,6.15,'1111122,1111122,1111122' 
COMPS,ioos:station:USF.COMPS:C10:1,2018-01-01T01:05:00Z,27.1690,-82.9260,3.0,4.04,197.06,5.09,'1111122,1111122,1111122' 
COMPS,ioos:station:USF.COMPS:C10:1,2018-01-01T01:35:00Z,27.1690,-82.9260,3.0,4.18,199.59,5.54,'1111122,1111122,1111122' 
COMPS,ioos:station:USF.COMPS:C10:1,2018-01-01T02:05:00Z,27.1690,-82.9260,3.0,3.77,192.85,4.68,'1111122,1111122,1111122' 
COMPS,ioos:station:USF.COMPS:C10:1,2018-01-01T02:35:00Z,27.1690,-82.9260,3.0,3.72,202.49,4.99,'1111122,1111122,1111122' 
COMPS,ioos:station:USF.COMPS:C10:1,2018-01-01T03:05:00Z,27.1690,-82.9260,3.0,3.62,212.52,4.57,'1111122,1111122,1111122' 
COMPS,ioos:station:USF.COMPS:C10:1,2018-01-01T03:35:00Z,27.1690,-82.9260,3.0,3.84,197.04,4.96,'1111122,1111122,1111122' 
COMPS,ioos:station:USF.COMPS:C10:1,2018-01-01T04:05:00Z,27.1690,-82.9260,3.0,4.9,188.72,6.07,'1111122,1111122,1111122' 
COMPS,ioos:station:USF.COMPS:C10:1,2018-01-01T04:35:00Z,27.1690,-82.9260,3.0,5.12,193.27,7.08,'1111122,1111122,1111122' 
COMPS,ioos:station:USF.COMPS:C10:1,2018-01-01T05:05:00Z,27.1690,-82.9260,3.0,6.3,187.11,7.56,'1111122,1111122,1111122' 
COMPS,ioos:station:USF.COMPS:C10:1,2018-01-01T05:35:00Z,27.1690,-82.9260,3.0,6.13,190.04,7.65,'1111122,1111122,1111122' 
COMPS,ioos:station:USF.COMPS:C10:1,2018-01-01T06:05:00Z,27.1690,-82.9260,3.0,6.55,190.06,8.23,'1111122,1111122,1111122' 
COMPS,ioos:station:USF.COMPS:C10:1,2018-01-01T06:35:00Z,27.1690,-82.9260,3.0,6.71,187.47,8.38,'1111122,1111122,1111122' 
COMPS,ioos:station:USF.COMPS:C10:1,2018-01-01T07:05:00Z,27.1690,-82.9260,3.0,6.68,189.84,8.93,'1111122,1111122,1111122' 
COMPS,ioos:station:USF.COMPS:C10:1,2018-01-01T07:35:00Z,27.1690,-82.9260,3.0,5.48,202.22,7.03,'1111122,1111122,1111122' 
COMPS,ioos:station:USF.COMPS:C10:1,2018-01-01T08:05:00Z,27.1690,-82.9260,3.0,4.49,210.6,5.56,'1111122,1111122,1111122' 
COMPS,ioos:station:USF.COMPS:C10:1,2018-01-01T08:35:00Z,27.1690,-82.9260,3.0,4.73,209.7,5.93,'1111122,1111122,1111122' 
COMPS,ioos:station:USF.COMPS:C10:1,2018-01-01T09:05:00Z,27.1690,-82.9260,3.0,4.62,211.06,5.52,'1111122,1111122,1111122' 
COMPS,ioos:station:USF.COMPS:C10:1,2018-01-01T09:35:00Z,27.1690,-82.9260,3.0,5.06,220.67,6.14,'1111122,1111122,1111122' 
COMPS,ioos:station:USF.COMPS:C10:1,2018-01-01T10:05:00Z,27.1690,-82.9260,3.0,4.68,222.64,5.99,'1111122,1111122,1111122' 
COMPS,ioos:station:USF.COMPS:C10:1,2018-01-01T10:35:00Z,27.1690,-82.9260,3.0,4.84,218.1,6.26,'1111122,1111122,1111122' 
COMPS,ioos:station:USF.COMPS:C10:1,2018-01-01T11:05:00Z,27.1690,-82.9260,3.0,5.09,226.2,6.28,'1111122,1111122,1111122' 
COMPS,ioos:station:USF.COMPS:C10:1,2018-01-01T11:35:00Z,27.1690,-82.9260,3.0,5.84,250.62,9.64,'1111122,1111122,1111122' 
COMPS,ioos:station:USF.COMPS:C10:1,2018-01-01T12:05:00Z,27.1690,-82.9260,3.0,9.83,304.87,11.94,'1111122,1111122,1111122' 
COMPS,ioos:station:USF.COMPS:C10:1,2018-01-01T12:35:00Z,27.1690,-82.9260,3.0,10.66,321.68,13.15,'1111122,1111122,1111122' 
COMPS,ioos:station:USF.COMPS:C10:1,2018-01-01T13:05:00Z,27.1690,-82.9260,3.0,10.14,326.65,12.59,'1111122,1111122,1111122' 
COMPS,ioos:station:USF.COMPS:C10:1,2018-01-01T13:35:00Z,27.1690,-82.9260,3.0,10.35,332.62,12.38,'1111122,1111122,1111122' 
COMPS,ioos:station:USF.COMPS:C10:1,2018-01-01T14:05:00Z,27.1690,-82.9260,3.0,11.26,332.29,13.78,'1111122,1111122,1111122' 
COMPS,ioos:station:USF.COMPS:C10:1,2018-01-01T14:35:00Z,27.1690,-82.9260,3.0,11.22,339.01,14.08,'1111122,1111122,1111122' 
COMPS,ioos:station:USF.COMPS:C10:1,2018-01-01T15:05:00Z,27.1690,-82.9260,3.0,11.17,345.67,13.72,'1111122,1111122,1111122' 
COMPS,ioos:station:USF.COMPS:C10:1,2018-01-01T15:35:00Z,27.1690,-82.9260,3.0,10.95,347.93,13.65,'1111122,1111122,1111122' 
COMPS,ioos:station:USF.COMPS:C10:1,2018-01-01T16:05:00Z,27.1690,-82.9260,3.0,11.2,344.29,14.08,'1111122,1111122,1111122' 
COMPS,ioos:station:USF.COMPS:C10:1,2018-01-01T16:35:00Z,27.1690,-82.9260,3.0,11.83,346.7,14.72,'1111122,1111122,1111122' 
COMPS,ioos:station:USF.COMPS:C10:1,2018-01-01T17:05:00Z,27.1690,-82.9260,3.0,11.45,347.91,13.71,'1111122,1111122,1111122' 
COMPS,ioos:station:USF.COMPS:C10:1,2018-01-01T17:35:00Z,27.1690,-82.9260,3.0,11.43,346.03,14.45,'1111122,1111122,1111122' 
COMPS,ioos:station:USF.COMPS:C10:1,2018-01-01T18:05:00Z,27.1690,-82.9260,3.0,11.26,344.52,14.87,'1111122,1111122,1111122' 
COMPS,ioos:station:USF.COMPS:C10:1,2018-01-01T18:35:00Z,27.1690,-82.9260,3.0,10.4,352.84,12.63,'1111122,1111122,1111122' 
COMPS,ioos:station:USF.COMPS:C10:1,2018-01-01T19:05:00Z,27.1690,-82.9260,3.0,9.82,353.64,12.66,'1111122,1111122,1111122' 
COMPS,ioos:station:USF.COMPS:C10:1,2018-01-01T19:35:00Z,27.1690,-82.9260,3.0,10.04,349.14,13.28,'1111122,1111122,1111122' 
COMPS,ioos:station:USF.COMPS:C10:1,2018-01-01T20:05:00Z,27.1690,-82.9260,3.0,10.42,346.33,13.14,'1111122,1111122,1111122' 
COMPS,ioos:station:USF.COMPS:C10:1,2018-01-01T20:35:00Z,27.1690,-82.9260,3.0,10.47,354.99,14.25,'1111122,1111122,1111122' 
COMPS,ioos:station:USF.COMPS:C10:1,2018-01-01T21:05:00Z,27.1690,-82.9260,3.0,10.53,359.16,13.1,'1111122,1111122,1111122' 
COMPS,ioos:station:USF.COMPS:C10:1,2018-01-01T21:35:00Z,27.1690,-82.9260,3.0,10.96,356.22,13.52,'1111122,1111122,1111122' 
COMPS,ioos:station:USF.COMPS:C10:1,2018-01-01T22:05:00Z,27.1690,-82.9260,3.0,10.51,2.65,12.94,'1111122,1111122,1111122' 
COMPS,ioos:station:USF.COMPS:C10:1,2018-01-01T22:35:00Z,27.1690,-82.9260,3.0,10.29,14.97,12.75,'1111122,1111122,1111122' 
COMPS,ioos:station:USF.COMPS:C10:1,2018-01-01T23:05:00Z,27.1690,-82.9260,3.0,10.95,15.62,13.93,'1111122,1111122,1111122' 
COMPS,ioos:station:USF.COMPS:C10:1,2018-01-01T23:35:00Z,27.1690,-82.9260,3.0,10.74,19.34,13.15,'1111122,1111122,1111122' 
COMPS,ioos:station:USF.COMPS:C10:1,2018-01-02T00:05:00Z,27.1690,-82.9260,3.0,10.26,24.54,13.36,'1111122,1111122,1111122' 
COMPS,ioos:station:USF.COMPS:C10:1,2018-01-02T00:35:00Z,27.1690,-82.9260,3.0,11.22,21.77,13.51,'1111122,1111122,1111122' 
COMPS,ioos:station:USF.COMPS:C10:1,2018-01-02T01:05:00Z,27.1690,-82.9260,3.0,10.88,23.28,13.98,'1111122,1111122,1111122' 
COMPS,ioos:station:USF.COMPS:C10:1,2018-01-02T01:35:00Z,27.1690,-82.9260,3.0,10.99,21.9,14.0,'1111122,1111122,1111122' 
COMPS,ioos:station:USF.COMPS:C10:1,2018-01-02T02:05:00Z,27.1690,-82.9260,3.0,11.15,23.8,14.5,'1111122,1111122,1111122' 
COMPS,ioos:station:USF.COMPS:C10:1,2018-01-02T02:35:00Z,27.1690,-82.9260,3.0,11.72,21.56,17.18,'1111122,1111122,1111122' 
COMPS,ioos:station:USF.COMPS:C10:1,2018-01-02T03:05:00Z,27.1690,-82.9260,3.0,11.38,25.55,14.04,'1111122,1111122,1111122' 
COMPS,ioos:station:USF.COMPS:C10:1,2018-01-02T03:35:00Z,27.1690,-82.9260,3.0,11.39,24.69,15.47,'1111122,1111122,1111122' 
COMPS,ioos:station:USF.COMPS:C10:1,2018-01-02T04:05:00Z,27.1690,-82.9260,3.0,11.38,25.75,16.21,'1111122,1111122,1111122' 
COMPS,ioos:station:USF.COMPS:C10:1,2018-01-02T04:35:00Z,27.1690,-82.9260,3.0,11.33,21.32,15.03,'1111122,1111122,1111122' 
COMPS,ioos:station:USF.COMPS:C10:1,2018-01-02T05:05:00Z,27.1690,-82.9260,3.0,11.27,21.28,14.41,'1111122,1111122,1111122' 
COMPS,ioos:station:USF.COMPS:C10:1,2018-01-02T05:35:00Z,27.1690,-82.9260,3.0,11.3,27.28,15.06,'1111122,1111122,1111122' 
COMPS,ioos:station:USF.COMPS:C10:1,2018-01-02T06:05:00Z,27.1690,-82.9260,3.0,11.26,27.44,14.7,'1111122,1111122,1111122' 
COMPS,ioos:station:USF.COMPS:C10:1,2018-01-02T06:35:00Z,27.1690,-82.9260,3.0,11.99,25.19,14.64,'1111122,1111122,1111122' 
COMPS,ioos:station:USF.COMPS:C10:1,2018-01-02T07:05:00Z,27.1690,-82.9260,3.0,11.72,22.34,15.24,'1111122,1111122,1111122' 
COMPS,ioos:station:USF.COMPS:C10:1,2018-01-02T07:35:00Z,27.1690,-82.9260,3.0,11.95,27.25,15.11,'1111122,1111122,1111122' 
COMPS,ioos:station:USF.COMPS:C10:1,2018-01-02T08:05:00Z,27.1690,-82.9260,3.0,12.16,20.62,15.17,'1111122,1111122,1111122' 
COMPS,ioos:station:USF.COMPS:C10:1,2018-01-02T08:35:00Z,27.1690,-82.9260,3.0,11.89,21.19,15.28,'1111122,1111122,1111122' 
COMPS,ioos:station:USF.COMPS:C10:1,2018-01-02T09:05:00Z,27.1690,-82.9260,3.0,12.08,19.59,14.93,'1111122,1111122,1111122' 
COMPS,ioos:station:USF.COMPS:C10:1,2018-01-02T09:35:00Z,27.1690,-82.9260,3.0,11.98,20.36,15.16,'1111122,1111122,1111122' 
COMPS,ioos:station:USF.COMPS:C10:1,2018-01-02T10:05:00Z,27.1690,-82.9260,3.0,11.82,22.51,15.76,'1111122,1111122,1111122' 
COMPS,ioos:station:USF.COMPS:C10:1,2018-01-02T10:35:00Z,27.1690,-82.9260,3.0,12.09,19.18,15.3,'1111122,1111122,1111122' 
COMPS,ioos:station:USF.COMPS:C10:1,2018-01-02T11:05:00Z,27.1690,-82.9260,3.0,12.04,21.64,16.06,'1111122,1111122,1111122' 
COMPS,ioos:station:USF.COMPS:C10:1,2018-01-02T11:35:00Z,27.1690,-82.9260,3.0,11.76,20.56,14.74,'1111122,1111122,1111122' 
COMPS,ioos:station:USF.COMPS:C10:1,2018-01-02T12:05:00Z,27.1690,-82.9260,3.0,11.54,22.66,14.74,'1111122,1111122,1111122' 
COMPS,ioos:station:USF.COMPS:C10:1,2018-01-02T12:35:00Z,27.1690,-82.9260,3.0,11.34,22.29,14.31,'1111122,1111122,1111122' 
COMPS,ioos:station:USF.COMPS:C10:1,2018-01-02T13:05:00Z,27.1690,-82.9260,3.0,11.48,22.44,15.22,'1111122,1111122,1111122' 
COMPS,ioos:station:USF.COMPS:C10:1,2018-01-02T13:35:00Z,27.1690,-82.9260,3.0,11.8,25.6,14.36,'1111122,1111122,1111122' 
COMPS,ioos:station:USF.COMPS:C10:1,2018-01-02T14:05:00Z,27.1690,-82.9260,3.0,12.04,27.0,14.92,'1111122,1111122,1111122' 
COMPS,ioos:station:USF.COMPS:C10:1,2018-01-02T14:35:00Z,27.1690,-82.9260,3.0,12.0,32.73,15.18,'1111122,1111122,1111122' 
COMPS,ioos:station:USF.COMPS:C10:1,2018-01-02T15:05:00Z,27.1690,-82.9260,3.0,11.76,35.13,14.73,'1111122,1111122,1111122' 
COMPS,ioos:station:USF.COMPS:C10:1,2018-01-02T15:35:00Z,27.1690,-82.9260,3.0,12.29,29.1,15.68,'1111122,1111122,1111122' 
COMPS,ioos:station:USF.COMPS:C10:1,2018-01-02T16:05:00Z,27.1690,-82.9260,3.0,12.1,20.01,15.2,'1111122,1111122,1111122' 
COMPS,ioos:station:USF.COMPS:C10:1,2018-01-02T16:35:00Z,27.1690,-82.9260,3.0,11.6,29.21,14.56,'1111122,1111122,1111122' 
COMPS,ioos:station:USF.COMPS:C10:1,2018-01-02T17:05:00Z,27.1690,-82.9260,3.0,11.82,32.19,14.82,'1111122,1111122,1111122' 
COMPS,ioos:station:USF.COMPS:C10:1,2018-01-02T17:35:00Z,27.1690,-82.9260,3.0,12.38,35.91,15.38,'1111122,1111122,1111122' 
COMPS,ioos:station:USF.COMPS:C10:1,2018-01-02T18:05:00Z,27.1690,-82.9260,3.0,11.24,34.14,14.4,'1111122,1111122,1111122' 
COMPS,ioos:station:USF.COMPS:C10:1,2018-01-02T18:35:00Z,27.1690,-82.9260,3.0,10.83,33.21,13.67,'1111122,1111122,1111122' 
COMPS,ioos:station:USF.COMPS:C10:1,2018-01-02T19:05:00Z,27.1690,-82.9260,3.0,10.34,37.17,12.81,'1111122,1111122,1111122' 
COMPS,ioos:station:USF.COMPS:C10:1,2018-01-02T19:35:00Z,27.1690,-82.9260,3.0,9.88,30.55,12.72,'1111122,1111122,1111122' 
COMPS,ioos:station:USF.COMPS:C10:1,2018-01-02T20:05:00Z,27.1690,-82.9260,3.0,10.3,30.25,12.99,'1111122,1111122,1111122' 
COMPS,ioos:station:USF.COMPS:C10:1,2018-01-02T20:35:00Z,27.1690,-82.9260,3.0,10.52,26.32,12.99,'1111122,1111122,1111122' 
COMPS,ioos:station:USF.COMPS:C10:1,2018-01-02T21:05:00Z,27.1690,-82.9260,3.0,10.82,27.11,15.01,'1111122,1111122,1111122' 
COMPS,ioos:station:USF.COMPS:C10:1,2018-01-02T21:35:00Z,27.1690,-82.9260,3.0,10.83,27.06,13.73,'1111122,1111122,1111122' 
COMPS,ioos:station:USF.COMPS:C10:1,2018-01-02T22:05:00Z,27.1690,-82.9260,3.0,11.06,31.86,14.03,'1111122,1111122,1111122' 
COMPS,ioos:station:USF.COMPS:C10:1,2018-01-02T22:35:00Z,27.1690,-82.9260,3.0,11.31,38.66,14.13,'1111122,1111122,1111122' 
COMPS,ioos:station:USF.COMPS:C10:1,2018-01-02T23:05:00Z,27.1690,-82.9260,3.0,10.55,34.93,13.31,'1111122,1111122,1111122' 
COMPS,ioos:station:USF.COMPS:C10:1,2018-01-02T23:35:00Z,27.1690,-82.9260,3.0,11.06,36.36,14.12,'1111122,1111122,1111122' 
COMPS,ioos:station:USF.COMPS:C10:1,2018-01-03T00:05:00Z,27.1690,-82.9260,3.0,10.71,40.22,13.65,'1111122,1111122,1111122' 
COMPS,ioos:station:USF.COMPS:C10:1,2018-01-03T00:35:00Z,27.1690,-82.9260,3.0,10.7,36.24,14.42,'1111122,1111122,1111122' 
COMPS,ioos:station:USF.COMPS:C10:1,2018-01-03T01:05:00Z,27.1690,-82.9260,3.0,10.24,41.59,12.92,'1111122,1111122,1111122' 
COMPS,ioos:station:USF.COMPS:C10:1,2018-01-03T01:35:00Z,27.1690,-82.9260,3.0,10.67,39.38,13.18,'1111122,1111122,1111122' 
COMPS,ioos:station:USF.COMPS:C10:1,2018-01-03T02:05:00Z,27.1690,-82.9260,3.0,10.16,44.27,12.62,'1111122,1111122,1111122' 
COMPS,ioos:station:USF.COMPS:C10:1,2018-01-03T02:35:00Z,27.1690,-82.9260,3.0,10.54,45.05,13.11,'1111122,1111122,1111122' 
COMPS,ioos:station:USF.COMPS:C10:1,2018-01-03T03:05:00Z,27.1690,-82.9260,3.0,10.52,43.45,12.71,'1111122,1111122,1111122' 
COMPS,ioos:station:USF.COMPS:C10:1,2018-01-03T03:35:00Z,27.1690,-82.9260,3.0,9.96,34.7,12.19,'1111122,1111122,1111122' 
COMPS,ioos:station:USF.COMPS:C10:1,2018-01-03T04:05:00Z,27.1690,-82.9260,3.0,10.33,39.66,12.55,'1111122,1111122,1111122' 
COMPS,ioos:station:USF.COMPS:C10:1,2018-01-03T04:35:00Z,27.1690,-82.9260,3.0,9.62,34.38,12.07,'1111122,1111122,1111122' 
COMPS,ioos:station:USF.COMPS:C10:1,2018-01-03T05:05:00Z,27.1690,-82.9260,3.0,10.16,38.54,13.22,'1111122,1111122,1111122' 
COMPS,ioos:station:USF.COMPS:C10:1,2018-01-03T05:35:00Z,27.1690,-82.9260,3.0,10.11,41.48,13.15,'1111122,1111122,1111122' 
COMPS,ioos:station:USF.COMPS:C10:1,2018-01-03T06:05:00Z,27.1690,-82.9260,3.0,9.49,46.87,11.98,'1111122,1111122,1111122' 
COMPS,ioos:station:USF.COMPS:C10:1,2018-01-03T06:35:00Z,27.1690,-82.9260,3.0,8.21,28.8,10.96,'1111122,1111122,1111122' 
COMPS,ioos:station:USF.COMPS:C10:1,2018-01-03T07:05:00Z,27.1690,-82.9260,3.0,8.23,24.52,10.5,'1111122,1111122,1111122' 
COMPS,ioos:station:USF.COMPS:C10:1,2018-01-03T07:35:00Z,27.1690,-82.9260,3.0,8.15,19.17,10.23,'1111122,1111122,1111122' 
COMPS,ioos:station:USF.COMPS:C10:1,2018-01-03T08:05:00Z,27.1690,-82.9260,3.0,7.99,11.23,9.99,'1111122,1111122,1111122' 
COMPS,ioos:station:USF.COMPS:C10:1,2018-01-03T08:35:00Z,27.1690,-82.9260,3.0,7.93,358.89,9.58,'1111122,1111122,1111122' 
COMPS,ioos:station:USF.COMPS:C10:1,2018-01-03T09:05:00Z,27.1690,-82.9260,3.0,8.48,355.35,12.25,'1111122,1111122,1111122' 
COMPS,ioos:station:USF.COMPS:C10:1,2018-01-03T09:35:00Z,27.1690,-82.9260,3.0,9.07,354.7,10.92,'1111122,1111122,1111122' 
COMPS,ioos:station:USF.COMPS:C10:1,2018-01-03T10:05:00Z,27.1690,-82.9260,3.0,9.55,357.93,11.85,'1111122,1111122,1111122' 
COMPS,ioos:station:USF.COMPS:C10:1,2018-01-03T10:35:00Z,27.1690,-82.9260,3.0,9.24,4.2,11.05,'1111122,1111122,1111122' 
COMPS,ioos:station:USF.COMPS:C10:1,2018-01-03T11:05:00Z,27.1690,-82.9260,3.0,8.95,356.41,11.07,'1111122,1111122,1111122' 
COMPS,ioos:station:USF.COMPS:C10:1,2018-01-03T11:35:00Z,27.1690,-82.9260,3.0,9.16,343.97,11.51,'1111122,1111122,1111122' 
COMPS,ioos:station:USF.COMPS:C10:1,2018-01-03T12:05:00Z,27.1690,-82.9260,3.0,10.44,342.85,14.51,'1111122,1111122,1111122' 
COMPS,ioos:station:USF.COMPS:C10:1,2018-01-03T12:35:00Z,27.1690,-82.9260,3.0,11.56,346.66,15.04,'1111122,1111122,1111122' 
COMPS,ioos:station:USF.COMPS:C10:1,2018-01-03T13:05:00Z,27.1690,-82.9260,3.0,11.17,345.23,13.92,'1111122,1111122,1111122' 
COMPS,ioos:station:USF.COMPS:C10:1,2018-01-03T13:35:00Z,27.1690,-82.9260,3.0,12.02,336.54,14.98,'1111122,1111122,1111122' 
COMPS,ioos:station:USF.COMPS:C10:1,2018-01-03T14:05:00Z,27.1690,-82.9260,3.0,14.07,340.88,17.8,'1111122,1111122,1111122' 
COMPS,ioos:station:USF.COMPS:C10:1,2018-01-03T14:35:00Z,27.1690,-82.9260,3.0,14.03,339.29,20.45,'1111122,1111122,1111122' 
COMPS,ioos:station:USF.COMPS:C10:1,2018-01-03T15:05:00Z,27.1690,-82.9260,3.0,13.29,337.0,17.32,'1111122,1111122,1111122' 
COMPS,ioos:station:USF.COMPS:C10:1,2018-01-03T15:35:00Z,27.1690,-82.9260,3.0,12.27,336.18,15.63,'1111122,1111122,1111122' 
COMPS,ioos:station:USF.COMPS:C10:1,2018-01-03T16:05:00Z,27.1690,-82.9260,3.0,11.86,340.11,14.79,'1111122,1111122,1111122' 
COMPS,ioos:station:USF.COMPS:C10:1,2018-01-03T16:35:00Z,27.1690,-82.9260,3.0,13.58,335.7,19.76,'1111122,1111122,1111122' 
COMPS,ioos:station:USF.COMPS:C10:1,2018-01-03T17:05:00Z,27.1690,-82.9260,3.0,11.26,340.54,13.81,'1111122,1111122,1111122' 
COMPS,ioos:station:USF.COMPS:C10:1,2018-01-03T17:35:00Z,27.1690,-82.9260,3.0,11.84,340.11,15.38,'1111122,1111122,1111122' 
COMPS,ioos:station:USF.COMPS:C10:1,2018-01-03T18:05:00Z,27.1690,-82.9260,3.0,11.26,334.79,13.77,'1111122,1111122,1111122' 
COMPS,ioos:station:USF.COMPS:C10:1,2018-01-03T18:35:00Z,27.1690,-82.9260,3.0,11.72,333.56,14.5,'1111122,1111122,1111122' 
COMPS,ioos:station:USF.COMPS:C10:1,2018-01-03T19:05:00Z,27.1690,-82.9260,3.0,11.89,331.29,15.39,'1111122,1111122,1111122' 
COMPS,ioos:station:USF.COMPS:C10:1,2018-01-03T19:35:00Z,27.1690,-82.9260,3.0,11.32,337.88,14.62,'1111122,1111122,1111122' 
COMPS,ioos:station:USF.COMPS:C10:1,2018-01-03T20:05:00Z,27.1690,-82.9260,3.0,11.58,339.09,14.53,'1111122,1111122,1111122' 
COMPS,ioos:station:USF.COMPS:C10:1,2018-01-03T20:35:00Z,27.1690,-82.9260,3.0,11.59,334.66,14.76,'1111122,1111122,1111122' 
COMPS,ioos:station:USF.COMPS:C10:1,2018-01-03T21:05:00Z,27.1690,-82.9260,3.0,11.92,333.85,15.38,'1111122,1111122,1111122' 
COMPS,ioos:station:USF.COMPS:C10:1,2018-01-03T21:35:00Z,27.1690,-82.9260,3.0,11.65,332.03,14.71,'1111122,1111122,1111122' 
COMPS,ioos:station:USF.COMPS:C10:1,2018-01-03T22:05:00Z,27.1690,-82.9260,3.0,10.88,329.1,14.55,'1111122,1111122,1111122' 
COMPS,ioos:station:USF.COMPS:C10:1,2018-01-03T22:35:00Z,27.1690,-82.9260,3.0,10.84,331.64,14.58,'1111122,1111122,1111122' 
COMPS,ioos:station:USF.COMPS:C10:1,2018-01-03T23:05:00Z,27.1690,-82.9260,3.0,10.52,338.2,13.23,'1111122,1111122,1111122' 
COMPS,ioos:station:USF.COMPS:C10:1,2018-01-03T23:35:00Z,27.1690,-82.9260,3.0,10.55,338.56,13.83,'1111122,1111122,1111122' 
COMPS,ioos:station:USF.COMPS:C10:1,2018-01-04T00:05:00Z,27.1690,-82.9260,3.0,10.76,336.88,13.46,'1111122,1111122,1111122' 
COMPS,ioos:station:USF.COMPS:C10:1,2018-01-04T00:35:00Z,27.1690,-82.9260,3.0,10.86,341.52,14.39,'1111122,1111122,1111122' 
COMPS,ioos:station:USF.COMPS:C10:1,2018-01-04T01:05:00Z,27.1690,-82.9260,3.0,11.23,345.61,14.28,'1111122,1111122,1111122' 
COMPS,ioos:station:USF.COMPS:C10:1,2018-01-04T01:35:00Z,27.1690,-82.9260,3.0,11.05,348.51,15.0,'1111122,1111122,1111122' 
COMPS,ioos:station:USF.COMPS:C10:1,2018-01-04T02:05:00Z,27.1690,-82.9260,3.0,10.64,344.41,13.64,'1111122,1111122,1111122' 
COMPS,ioos:station:USF.COMPS:C10:1,2018-01-04T02:35:00Z,27.1690,-82.9260,3.0,10.06,344.72,13.04,'1111122,1111122,1111122' 
COMPS,ioos:station:USF.COMPS:C10:1,2018-01-04T03:05:00Z,27.1690,-82.9260,3.0,8.75,352.95,11.49,'1111122,1111122,1111122' 
COMPS,ioos:station:USF.COMPS:C10:1,2018-01-04T03:35:00Z,27.1690,-82.9260,3.0,10.37,15.88,13.26,'1111122,1111122,1111122' 
COMPS,ioos:station:USF.COMPS:C10:1,2018-01-04T04:05:00Z,27.1690,-82.9260,3.0,8.94,22.04,11.62,'1111122,1111122,1111122' 
COMPS,ioos:station:USF.COMPS:C10:1,2018-01-04T04:35:00Z,27.1690,-82.9260,3.0,8.15,28.06,10.52,'1111122,1111122,1111122' 
COMPS,ioos:station:USF.COMPS:C10:1,2018-01-04T05:05:00Z,27.1690,-82.9260,3.0,8.49,27.29,11.78,'1111122,1111122,1111122' 
COMPS,ioos:station:USF.COMPS:C10:1,2018-01-04T05:35:00Z,27.1690,-82.9260,3.0,8.95,25.16,11.56,'1111122,1111122,1111122' 
COMPS,ioos:station:USF.COMPS:C10:1,2018-01-04T06:05:00Z,27.1690,-82.9260,3.0,8.69,21.54,11.75,'1111122,1111122,1111122' 
COMPS,ioos:station:USF.COMPS:C10:1,2018-01-04T06:35:00Z,27.1690,-82.9260,3.0,8.34,22.78,11.08,'1111122,1111122,1111122' 
COMPS,ioos:station:USF.COMPS:C10:1,2018-01-04T07:05:00Z,27.1690,-82.9260,3.0,7.74,15.12,10.52,'1111122,1111122,1111122' 
COMPS,ioos:station:USF.COMPS:C10:1,2018-01-04T07:35:00Z,27.1690,-82.9260,3.0,7.66,27.19,9.96,'1111122,1111122,1111122' 
COMPS,ioos:station:USF.COMPS:C10:1,2018-01-04T08:05:00Z,27.1690,-82.9260,3.0,7.02,14.02,9.5,'1111122,1111122,1111122' 
COMPS,ioos:station:USF.COMPS:C10:1,2018-01-04T08:35:00Z,27.1690,-82.9260,3.0,6.05,16.67,8.63,'1111122,1111122,1111122' 
COMPS,ioos:station:USF.COMPS:C10:1,2018-01-04T09:05:00Z,27.1690,-82.9260,3.0,6.95,33.43,9.32,'1111122,1111122,1111122' 
COMPS,ioos:station:USF.COMPS:C10:1,2018-01-04T09:35:00Z,27.1690,-82.9260,3.0,5.98,23.69,8.54,'1111122,1111122,1111122' 
COMPS,ioos:station:USF.COMPS:C10:1,2018-01-04T10:05:00Z,27.1690,-82.9260,3.0,7.89,338.13,11.16,'1111122,1111122,1111122' 
COMPS,ioos:station:USF.COMPS:C10:1,2018-01-04T10:35:00Z,27.1690,-82.9260,3.0,8.1,338.34,10.77,'1111122,1111122,1111122' 
COMPS,ioos:station:USF.COMPS:C10:1,2018-01-04T11:05:00Z,27.1690,-82.9260,3.0,7.73,336.54,10.17,'1111122,1111122,1111122' 
COMPS,ioos:station:USF.COMPS:C10:1,2018-01-04T11:35:00Z,27.1690,-82.9260,3.0,8.71,332.7,11.46,'1111122,1111122,1111122' 
COMPS,ioos:station:USF.COMPS:C10:1,2018-01-04T12:05:00Z,27.1690,-82.9260,3.0,8.23,329.04,11.27,'1111122,1111122,1111122' 
COMPS,ioos:station:USF.COMPS:C10:1,2018-01-04T12:35:00Z,27.1690,-82.9260,3.0,8.17,336.24,11.17,'1111122,1111122,1111122' 
COMPS,ioos:station:USF.COMPS:C10:1,2018-01-04T13:05:00Z,27.1690,-82.9260,3.0,7.43,333.11,10.67,'1111122,1111122,1111122' 
COMPS,ioos:station:USF.COMPS:C10:1,2018-01-04T13:35:00Z,27.1690,-82.9260,3.0,7.49,322.37,10.08,'1111122,1111122,1111122' 
COMPS,ioos:station:USF.COMPS:C10:1,2018-01-04T14:05:00Z,27.1690,-82.9260,3.0,7.8,336.81,10.58,'1111122,1111122,1111122' 
COMPS,ioos:station:USF.COMPS:C10:1,2018-01-04T14:35:00Z,27.1690,-82.9260,3.0,7.25,321.49,9.78,'1111122,1111122,1111122' 
COMPS,ioos:station:USF.COMPS:C10:1,2018-01-04T15:05:00Z,27.1690,-82.9260,3.0,7.17,329.37,9.05,'1111122,1111122,1111122' 
COMPS,ioos:station:USF.COMPS:C10:1,2018-01-04T15:35:00Z,27.1690,-82.9260,3.0,7.29,328.16,9.78,'1111122,1111122,1111122' 
COMPS,ioos:station:USF.COMPS:C10:1,2018-01-04T16:05:00Z,27.1690,-82.9260,3.0,5.96,314.11,8.65,'1111122,1111122,1111122' 
COMPS,ioos:station:USF.COMPS:C10:1,2018-01-04T16:35:00Z,27.1690,-82.9260,3.0,7.15,315.43,9.8,'1111122,1111122,1111122' 
COMPS,ioos:station:USF.COMPS:C10:1,2018-01-04T17:05:00Z,27.1690,-82.9260,3.0,7.45,328.09,9.83,'1111122,1111122,1111122' 
COMPS,ioos:station:USF.COMPS:C10:1,2018-01-04T17:35:00Z,27.1690,-82.9260,3.0,7.3,333.49,9.83,'1111122,1111122,1111122' 
COMPS,ioos:station:USF.COMPS:C10:1,2018-01-04T18:05:00Z,27.1690,-82.9260,3.0,7.27,316.59,9.77,'1111122,1111122,1111122' 
COMPS,ioos:station:USF.COMPS:C10:1,2018-01-04T18:35:00Z,27.1690,-82.9260,3.0,8.04,314.3,11.29,'1111122,1111122,1111122' 
COMPS,ioos:station:USF.COMPS:C10:1,2018-01-04T19:05:00Z,27.1690,-82.9260,3.0,8.81,315.68,11.64,'1111122,1111122,1111122' 
COMPS,ioos:station:USF.COMPS:C10:1,2018-01-04T19:35:00Z,27.1690,-82.9260,3.0,9.04,326.94,11.37,'1111122,1111122,1111122' 
COMPS,ioos:station:USF.COMPS:C10:1,2018-01-04T20:05:00Z,27.1690,-82.9260,3.0,7.25,325.95,10.04,'1111122,1111122,1111122' 
COMPS,ioos:station:USF.COMPS:C10:1,2018-01-04T20:35:00Z,27.1690,-82.9260,3.0,8.64,315.99,11.76,'1111122,1111122,1111122' 
COMPS,ioos:station:USF.COMPS:C10:1,2018-01-04T21:05:00Z,27.1690,-82.9260,3.0,9.14,315.31,11.59,'1111122,1111122,1111122' 
COMPS,ioos:station:USF.COMPS:C10:1,2018-01-04T21:35:00Z,27.1690,-82.9260,3.0,8.68,313.85,11.15,'1111122,1111122,1111122' 
COMPS,ioos:station:USF.COMPS:C10:1,2018-01-04T22:05:00Z,27.1690,-82.9260,3.0,8.63,321.29,11.63,'1111122,1111122,1111122' 
COMPS,ioos:station:USF.COMPS:C10:1,2018-01-04T22:35:00Z,27.1690,-82.9260,3.0,8.65,319.61,11.62,'1111122,1111122,1111122' 
COMPS,ioos:station:USF.COMPS:C10:1,2018-01-04T23:05:00Z,27.1690,-82.9260,3.0,8.45,316.25,11.59,'1111122,1111122,1111122' 
COMPS,ioos:station:USF.COMPS:C10:1,2018-01-04T23:35:00Z,27.1690,-82.9260,3.0,8.81,317.96,12.28,'1111122,1111122,1111122' 
COMPS,ioos:station:USF.COMPS:C10:1,2018-01-05T00:05:00Z,27.1690,-82.9260,3.0,8.01,331.42,11.34,'1111122,1111122,1111122' 
COMPS,ioos:station:USF.COMPS:C10:1,2018-01-05T00:35:00Z,27.1690,-82.9260,3.0,8.18,329.31,10.55,'1111122,1111122,1111122' 
COMPS,ioos:station:USF.COMPS:C10:1,2018-01-05T01:05:00Z,27.1690,-82.9260,3.0,8.72,327.97,11.43,'1111122,1111122,1111122' 
COMPS,ioos:station:USF.COMPS:C10:1,2018-01-05T01:35:00Z,27.1690,-82.9260,3.0,8.31,331.24,10.97,'1111122,1111122,1111122' 